Accueil
METAR-TAF:

METAR-TAF

Aéroports :

Chester, Connecticut, États-Unis

latitude: 41-23-02N, longitude: 072-30-21W, altitude: 127 m

Observation

Le bulletin a été fait il y a 13 minutes, à 20:35 UTC
Vent 4 kt de direction variable
Température 20°C
Humidité 68%
Pression 1012 hPa
Visibilité: 16.1 km
Nuages épars à une hauteur de 2800 ft
Ciel couvert à une hauteur de 4300 ft

METAR: KSNC 122035Z AUTO VRB04KT 10SM SCT028 OVC043 20/14 A2989 RMK AO2

Heure: 16:48 (20:48 UTC)


TAF: absent

Observations et prévisions météorologiques de plus de 4000 aéroports (messages METAR et TAF).

Les stations disponibles sont représentées par des disques jaunes et rouges sur la carte.

Passer la souris dessus pour voir le nom de la station.

Cliquer dessus pour voir les observations et prévisions météorologiques.

Pour changer de carte: cliquez sur les boutons verts avec une croix noire pour zoomer, sur le bouton vert avec un tiret pour effectuer un zoom arrière, ou sur les flèches vertes pour les cartes adjacentes.


METAR-TAF: